{"data":{"norad_id":51791,"epoch":"2026-09-20T01:52:41.213856Z","epoch_age_seconds":88022,"freshness":"FRESH","line1":"1 51791U 22017Z   26263.07825479  .00001637  00000+0  61120-4 0  9996","line2":"2 51791  53.1598 181.9069 0001148  81.1229 278.9903 15.33538358253469","mean_motion":15.33538358,"eccentricity":0.0001148,"inclination_deg":53.1598,"raan_deg":181.9069,"arg_perigee_deg":81.1229,"mean_anomaly_deg":278.9903,"bstar":6.112e-5,"rev_number":25346,"period_min":93.900487880721,"perigee_km":464.47979824676,"apogee_km":466.05104344259,"semimajor_km":6843.4024208447,"source":"CELESTRAK","updated_at":"2026-09-20T09:00:39.940717Z"}}